EW1948 Weather Reports


Display with metric or nautical units.
time (UTC)temp
F
wind
direction
speed
MPH
gust
MPH
rain 1hr
in
rain 24hr
in
rain mn
in
humidity
%
barometer
mb
20260906031515 85 0.0 2.0 0.00 0.00 0.00 68 1013.6
20260906030515 85 0.0 0.0 0.00 0.00 0.00 68 1013.5
20260906025515 85 0.0 0.0 0.00 0.00 0.00 66 1013.4
20260906024515 85 0.0 0.0 0.00 0.00 0.00 66 1013.3
20260906023535 86 0.0 0.0 0.00 0.00 0.00 64 1013.2
20260906022555 86 0.0 0.0 0.00 0.00 0.00 64 1013.0
20260906021516 87 0.0 2.0 0.00 0.00 0.00 62 1012.9
20260906020515 88 0.0 0.0 0.00 0.00 0.00 61 1012.8
20260906015515 88 0.0 0.0 0.00 0.00 0.00 59 1012.6
20260906014515 89 0.0 0.0 0.00 0.00 0.00 59 1012.5
20260906013515 90 0.0 2.0 0.00 0.00 0.00 57 1012.4
20260906012515 90 0.0 2.0 0.00 0.00 0.00 55 1012.3
20260906011515 91 0.0 1.0 0.00 0.00 0.00 54 1012.2
20260906010515 91 0 1.0 2.0 0.00 0.00 0.00 53 1012.1
20260906005515 93 0.0 2.0 0.00 0.00 0.00 51 1012.0
20260906004515 94 0.0 1.0 0.00 0.00 0.00 49 1011.9
20260906003515 94 0 1.0 3.0 0.00 0.00 0.00 48 1011.8
20260906002515 95 0 1.0 3.0 0.00 0.00 0.00 48 1011.8
20260906001515 96 0 2.0 5.0 0.00 0.00 0.00 46 1011.9
20260906000515 97 0.0 2.0 0.00 0.00 0.00 45 1011.8
20260905235514 97 0 1.0 2.0 0.00 0.00 0.00 45 1011.7
20260905234514 98 315 1.0 4.0 0.00 0.00 0.00 44 1011.9
20260905233515 98 0 2.0 4.0 0.00 0.00 0.00 42 1012.0
20260905232515 99 338 2.0 6.0 0.00 0.00 0.00 42 1012.1
20260905231515 99 0 1.0 5.0 0.00 0.00 0.00 42 1012.0
20260905230515 100 315 2.0 5.0 0.00 0.00 0.00 42 1012.1
20260905225515 100 0 2.0 6.0 0.00 0.00 0.00 42 1012.0
20260905224515 100 0 2.0 5.0 0.00 0.00 0.00 43 1012.0
20260905223515 99 270 2.0 5.0 0.00 0.00 0.00 43 1012.0
20260905222515 99 338 2.0 5.0 0.00 0.00 0.00 42 1011.9
20260905221515 100 293 2.0 5.0 0.00 0.00 0.00 42 1012.0
20260905220515 100 315 2.0 6.0 0.00 0.00 0.00 41 1012.1
20260905215515 100 315 3.0 6.0 0.00 0.00 0.00 41 1012.1
20260905214514 100 315 2.0 4.0 0.00 0.00 0.00 40 1012.1
20260905213514 99 135 1.0 3.0 0.00 0.00 0.00 40 1012.0
20260905212514 99 0 2.0 4.0 0.00 0.00 0.00 42 1011.9
20260905211514 98 293 2.0 6.0 0.00 0.00 0.00 44 1012.0
20260905210515 97 293 3.0 5.0 0.00 0.00 0.00 44 1012.1
20260905205514 97 203 3.0 6.0 0.00 0.00 0.00 43 1012.2
20260905204514 100 0 2.0 6.0 0.00 0.00 0.00 40 1012.5
20260905203514 100 0 3.0 7.0 0.00 0.00 0.00 38 1012.3
20260905202514 103 45 1.0 3.0 0.00 0.00 0.00 35 1012.4
20260905201514 104 270 3.0 6.0 0.00 0.00 0.00 34 1012.5
20260905200514 105 0 3.0 6.0 0.00 0.00 0.00 34 1012.6
20260905195515 104 0 3.0 7.0 0.00 0.00 0.00 35 1012.7
20260905194514 104 338 2.0 7.0 0.00 0.00 0.00 36 1012.8
20260905193534 103 293 3.0 8.0 0.00 0.00 0.00 35 1013.1
20260905192514 102 293 2.0 5.0 0.00 0.00 0.00 35 1013.1
20260905191514 104 293 3.0 7.0 0.00 0.00 0.00 35 1013.2
20260905190514 104 338 3.0 5.0 0.00 0.00 0.00 37 1013.3
20260905185514 103 338 4.0 7.0 0.00 0.00 0.00 39 1013.4
20260905184514 102 0 2.0 5.0 0.00 0.00 0.00 39 1013.5
20260905183514 103 270 3.0 8.0 0.00 0.00 0.00 38 1013.6
20260905182514 103 23 2.0 4.0 0.00 0.00 0.00 39 1013.7
20260905181514 102 315 2.0 5.0 0.00 0.00 0.00 40 1013.8
20260905180534 101 248 2.0 5.0 0.00 0.00 0.00 41 1013.8
20260905175514 99 248 3.0 7.0 0.00 0.00 0.00 43 1013.9
20260905174514 100 23 3.0 9.0 0.00 0.00 0.00 43 1014.0
20260905173514 100 315 2.0 6.0 0.00 0.00 0.00 44 1014.1
20260905172514 99 270 2.0 5.0 0.00 0.00 0.00 45 1014.2
20260905171514 99 338 2.0 6.0 0.00 0.00 0.00 47 1014.4
20260905170514 98 315 2.0 5.0 0.00 0.00 0.00 48 1014.4
20260905165514 98 0 2.0 4.0 0.00 0.00 0.00 48 1014.7
20260905164514 97 293 2.0 5.0 0.00 0.00 0.00 50 1014.9
20260905163534 97 248 3.0 6.0 0.00 0.00 0.00 49 1015.0
20260905162514 96 315 2.0 5.0 0.00 0.00 0.00 51 1015.0
20260905161514 95 315 3.0 6.0 0.00 0.00 0.00 53 1015.0
20260905160514 95 0 3.0 9.0 0.00 0.00 0.00 52 1015.1
20260905155554 94 338 2.0 5.0 0.00 0.00 0.00 55 1015.1
20260905154514 93 0 2.0 6.0 0.00 0.00 0.00 56 1015.0
20260905153514 92 0 3.0 5.0 0.00 0.00 0.00 57 1015.1
20260905152514 92 0 3.0 5.0 0.00 0.00 0.00 58 1015.1
20260905151534 91 315 2.0 5.0 0.00 0.00 0.00 58 1015.1
20260905150514 91 315 2.0 5.0 0.00 0.00 0.00 58 1015.1
20260905145514 90 0 3.0 6.0 0.00 0.00 0.00 59 1015.1
20260905144514 89 338 3.0 6.0 0.00 0.00 0.00 60 1015.0
20260905143514 89 315 3.0 6.0 0.00 0.00 0.00 60 1015.0
20260905142514 89 315 2.0 7.0 0.00 0.00 0.00 61 1015.0
20260905141514 88 338 2.0 4.0 0.00 0.00 0.00 62 1015.0
20260905140514 87 338 1.0 4.0 0.00 0.00 0.00 64 1015.0
20260905135514 86 180 1.0 2.0 0.00 0.00 0.00 66 1014.9
20260905134554 85 180 2.0 4.0 0.00 0.00 0.00 68 1014.8
20260905133514 84 0.0 2.0 0.00 0.00 0.00 72 1014.7
20260905132513 83 158 1.0 3.0 0.00 0.00 0.00 76 1014.7
20260905131514 82 0.0 1.0 0.00 0.00 0.00 80 1014.6
20260905130534 80 0.0 2.0 0.00 0.00 0.00 84 1014.7
20260905125513 79 158 2.0 3.0 0.00 0.00 0.00 85 1014.6
20260905124514 78 158 2.0 3.0 0.00 0.00 0.00 87 1014.5
20260905123534 77 0.0 0.0 0.00 0.00 0.00 88 1014.4
20260905122513 76 0.0 0.0 0.00 0.00 0.00 89 1014.3
20260905121514 76 0.0 0.0 0.00 0.00 0.00 89 1014.3
20260905120513 76 0.0 1.0 0.00 0.00 0.00 89 1014.2
20260905115513 76 0.0 1.0 0.00 0.00 0.00 89 1014.1
20260905114514 76 0.0 1.0 0.00 0.00 0.00 89 1014.0
20260905113513 76 0.0 2.0 0.00 0.00 0.00 89 1014.1
20260905112514 76 0.0 0.0 0.00 0.00 0.00 89 1014.0
20260905111514 76 0.0 0.0 0.00 0.00 0.00 89 1014.0
20260905110516 76 0.0 0.0 0.00 0.00 0.00 89 1013.7
20260905105516 76 0.0 0.0 0.00 0.00 0.00 89 1013.8
20260905104516 76 0.0 0.0 0.00 0.00 0.00 89 1013.8
20260905103516 76 0.0 0.0 0.00 0.00 0.00 89 1013.8
20260905102535 76 0.0 0.0 0.00 0.00 0.00 89 1013.8
20260905101515 76 0.0 0.0 0.00 0.00 0.00 88 1014.0
20260905100516 76 0.0 0.0 0.00 0.00 0.00 88 1013.9
20260905095515 76 0.0 0.0 0.00 0.00 0.00 88 1013.9
20260905094515 76 0.0 0.0 0.00 0.00 0.00 88 1013.9
20260905093515 77 0.0 0.0 0.00 0.00 0.00 88 1013.8
20260905092516 77 0.0 0.0 0.00 0.00 0.00 88 1013.9
20260905091515 77 0.0 0.0 0.00 0.00 0.00 88 1013.8
20260905090515 77 0.0 0.0 0.00 0.00 0.00 87 1014.0
20260905085515 77 0.0 0.0 0.00 0.00 0.00 87 1013.9
20260905084535 77 0.0 0.0 0.00 0.00 0.00 87 1013.9
20260905083515 78 0.0 0.0 0.00 0.00 0.00 86 1014.0
20260905082515 78 0.0 0.0 0.00 0.00 0.00 86 1014.1
20260905081515 78 0.0 0.0 0.00 0.00 0.00 85 1014.2
20260905080515 78 0.0 0.0 0.00 0.00 0.00 85 1014.3
20260905075515 78 0.0 0.0 0.00 0.00 0.00 84 1014.2
20260905074515 79 0.0 0.0 0.00 0.00 0.00 83 1014.2
20260905073515 79 0.0 0.0 0.00 0.00 0.00 83 1014.1
20260905072515 79 0.0 0.0 0.00 0.00 0.00 82 1014.3
20260905071515 79 0.0 0.0 0.00 0.00 0.00 82 1014.3
20260905070515 79 0.0 0.0 0.00 0.00 0.00 82 1014.3
20260905065515 79 0.0 0.0 0.00 0.00 0.00 82 1014.3
20260905064535 79 0.0 0.0 0.00 0.00 0.00 82 1014.4
20260905063515 79 0.0 0.0 0.00 0.00 0.00 82 1014.2
20260905062515 79 0.0 0.0 0.00 0.00 0.00 82 1014.4
20260905061515 79 0.0 0.0 0.00 0.00 0.00 82 1014.4
20260905060515 79 0.0 0.0 0.00 0.00 0.00 81 1014.5
20260905055535 79 0.0 0.0 0.00 0.00 0.00 81 1014.4
20260905054515 80 0.0 0.0 0.00 0.00 0.00 81 1014.4
20260905053515 80 0.0 0.0 0.00 0.00 0.00 81 1014.5
20260905052515 80 0.0 0.0 0.00 0.00 0.00 81 1014.6
20260905051515 80 0.0 0.0 0.00 0.00 0.00 81 1014.6
20260905050515 81 0.0 0.0 0.00 0.00 0.00 80 1014.4
20260905045515 81 0.0 0.0 0.00 0.00 0.00 79 1014.4
20260905044515 81 0.0 0.0 0.00 0.00 0.00 79 1014.4
20260905043515 81 0.0 0.0 0.00 0.00 0.00 78 1014.4
20260905042515 82 0.0 0.0 0.00 0.00 0.00 78 1014.3
20260905041515 82 0.0 0.0 0.00 0.00 0.00 77 1014.3
20260905040515 82 0.0 0.0 0.00 0.00 0.00 77 1014.3
20260905035535 83 0.0 0.0 0.00 0.00 0.00 77 1014.3
20260905034515 83 0.0 0.0 0.00 0.00 0.00 77 1014.4
20260905033535 83 0.0 2.0 0.00 0.00 0.00 77 1014.4
20260905032515 83 0.0 0.0 0.00 0.00 0.00 78 1014.4